• en France
  • Liste des pays
  • À 7 jours
  • Température de l'eau
  • Carte satellitaire
  • Carte météo
  • Widgets météo
  • user-avatar
    Se connecter

    Météo par heure à Ibagué

    Ce jour, 20 Août, Lundi

    Heure Température Précipitation Vent Pression Humidité
    00:00 +21°C° 0 mm 1 m/s 650 mmHg 47%
    01:00 +20°C° 0 mm 1 m/s 650 mmHg 48%
    02:00 +20°C° 0 mm 1 m/s 650 mmHg 50%
    03:00 +20°C° 0 mm 1 m/s 650 mmHg 52%
    04:00 +19°C° 0 mm 1 m/s 650 mmHg 54%
    05:00 +20°C° 0 mm 1 m/s 650 mmHg 53%
    06:00 +21°C° 0 mm 1 m/s 650 mmHg 52%
    07:00 +21°C° 0 mm 1 m/s 650 mmHg 51%
    08:00 +24°C° 0 mm 2 m/s 651 mmHg 46%
    09:00 +26°C° 0 mm 3 m/s 652 mmHg 40%
    10:00 +29°C° 0 mm 3 m/s 652 mmHg 34%
    11:00 +30°C° 0 mm 3 m/s 652 mmHg 32%
    12:00 +31°C° 0 mm 3 m/s 651 mmHg 30%
    13:00 +33°C° 0 mm 3 m/s 651 mmHg 27%
    14:00 +33°C° 0 mm 3 m/s 650 mmHg 28%
    15:00 +31°C° 0 mm 3 m/s 650 mmHg 29%
    16:00 +31°C° 0 mm 3 m/s 649 mmHg 29%
    17:00 +28°C° 0 mm 2 m/s 649 mmHg 35%
    18:00 +26°C° 0 mm 2 m/s 649 mmHg 41%
    19:00 +23°C° 0 mm 2 m/s 649 mmHg 46%
    20:00 +23°C° 0,3 mm 2 m/s 650 mmHg 48%
    21:00 +21°C° 0,3 mm 2 m/s 650 mmHg 49%
    22:00 +21°C° 0,3 mm 1 m/s 651 mmHg 51%
    23:00 +21°C° 0,1 mm 1 m/s 651 mmHg 52%

    Demain, 21 Août, Mardi

    Heure Température Précipitation Vent Pression Humidité
    00:00 +21°C° 0,1 mm 1 m/s 650 mmHg 53%
    01:00 +20°C° 0,1 mm 1 m/s 650 mmHg 54%
    02:00 +20°C° 0 mm 1 m/s 650 mmHg 55%
    03:00 +20°C° 0 mm 1 m/s 650 mmHg 56%
    04:00 +19°C° 0 mm 1 m/s 649 mmHg 57%
    05:00 +20°C° 0 mm 1 m/s 650 mmHg 56%
    06:00 +21°C° 0 mm 1 m/s 650 mmHg 55%
    07:00 +21°C° 0 mm 1 m/s 651 mmHg 54%
    08:00 +24°C° 0 mm 2 m/s 651 mmHg 49%
    09:00 +26°C° 0 mm 2 m/s 652 mmHg 44%
    10:00 +28°C° 0 mm 3 m/s 652 mmHg 39%
    11:00 +29°C° 0 mm 3 m/s 652 mmHg 36%
    12:00 +30°C° 0 mm 3 m/s 651 mmHg 34%
    13:00 +31°C° 0 mm 3 m/s 651 mmHg 32%
    14:00 +31°C° 0 mm 3 m/s 650 mmHg 31%
    15:00 +31°C° 0 mm 3 m/s 650 mmHg 31%
    16:00 +31°C° 0 mm 3 m/s 649 mmHg 31%
    17:00 +28°C° 0,1 mm 3 m/s 649 mmHg 37%
    18:00 +26°C° 0,1 mm 2 m/s 649 mmHg 42%
    19:00 +23°C° 0,1 mm 2 m/s 649 mmHg 47%
    20:00 +23°C° 0,2 mm 2 m/s 650 mmHg 48%
    21:00 +21°C° 0,2 mm 2 m/s 650 mmHg 48%
    22:00 +21°C° 0,2 mm 1 m/s 651 mmHg 48%
    23:00 +21°C° 0 mm 1 m/s 650 mmHg 49%

    Après-demain, 22 Août, Mercredi

    Heure Température Précipitation Vent Pression Humidité
    00:00 +21°C° 0 mm 1 m/s 650 mmHg 50%
    01:00 +20°C° 0 mm 1 m/s 650 mmHg 51%
    02:00 +20°C° 0 mm 1 m/s 650 mmHg 53%
    03:00 +20°C° 0 mm 1 m/s 649 mmHg 55%
    04:00 +20°C° 0 mm 1 m/s 649 mmHg 56%
    05:00 +20°C° 0 mm 1 m/s 649 mmHg 56%
    06:00 +20°C° 0 mm 2 m/s 650 mmHg 56%
    07:00 +21°C° 0 mm 2 m/s 650 mmHg 55%
    08:00 +24°C° 0 mm 2 m/s 651 mmHg 49%
    09:00 +26°C° 0 mm 3 m/s 652 mmHg 43%
    10:00 +28°C° 0 mm 4 m/s 652 mmHg 37%
    11:00 +29°C° 0 mm 3 m/s 652 mmHg 34%
    12:00 +31°C° 0 mm 3 m/s 651 mmHg 31%
    13:00 +33°C° 0 mm 3 m/s 651 mmHg 28%
    14:00 +31°C° 0 mm 3 m/s 650 mmHg 28%
    15:00 +31°C° 0 mm 3 m/s 650 mmHg 28%
    16:00 +31°C° 0 mm 3 m/s 649 mmHg 29%
    17:00 +29°C° 0 mm 3 m/s 649 mmHg 35%
    18:00 +26°C° 0 mm 2 m/s 649 mmHg 41%
    19:00 +23°C° 0 mm 2 m/s 649 mmHg 47%
    20:00 +23°C° 0,1 mm 2 m/s 650 mmHg 46%
    21:00 +21°C° 0,1 mm 2 m/s 650 mmHg 46%
    22:00 +21°C° 0,1 mm 1 m/s 651 mmHg 45%
    23:00 +21°C° 0 mm 1 m/s 650 mmHg 45%

    23 Août, Jeudi

    Heure Température Précipitation Vent Pression Humidité
    00:00 +21°C° 0 mm 1 m/s 650 mmHg 45%
    01:00 +20°C° 0 mm 1 m/s 650 mmHg 45%
    02:00 +20°C° 0 mm 1 m/s 649 mmHg 46%
    03:00 +20°C° 0 mm 1 m/s 649 mmHg 47%
    04:00 +20°C° 0 mm 1 m/s 649 mmHg 48%
    05:00 +20°C° 0 mm 1 m/s 649 mmHg 48%
    06:00 +21°C° 0 mm 1 m/s 650 mmHg 49%
    07:00 +21°C° 0 mm 1 m/s 650 mmHg 49%
    08:00 +23°C° 0 mm 1 m/s 651 mmHg 45%
    09:00 +26°C° 0 mm 2 m/s 651 mmHg 41%
    10:00 +28°C° 0 mm 2 m/s 652 mmHg 37%
    11:00 +29°C° 0 mm 2 m/s 652 mmHg 34%
    12:00 +30°C° 0 mm 3 m/s 651 mmHg 32%
    13:00 +31°C° 0 mm 3 m/s 651 mmHg 29%
    14:00 +31°C° 0 mm 2 m/s 650 mmHg 29%
    15:00 +31°C° 0 mm 2 m/s 649 mmHg 29%
    16:00 +31°C° 0 mm 2 m/s 649 mmHg 28%
    17:00 +28°C° 0 mm 2 m/s 649 mmHg 35%
    18:00 +26°C° 0 mm 2 m/s 649 mmHg 41%
    19:00 +23°C° 0 mm 2 m/s 649 mmHg 47%
    20:00 +22°C° 0,3 mm 1 m/s 649 mmHg 46%
    21:00 +22°C° 0,3 mm 1 m/s 650 mmHg 46%
    22:00 +21°C° 0,3 mm 1 m/s 650 mmHg 45%
    23:00 +21°C° 0,1 mm 1 m/s 650 mmHg 44%

    24 Août, Vendredi

    Heure Température Précipitation Vent Pression Humidité
    00:00 +21°C° 0,1 mm 1 m/s 650 mmHg 44%
    01:00 +20°C° 0,1 mm 1 m/s 649 mmHg 44%
    02:00 +20°C° 0 mm 1 m/s 649 mmHg 44%
    03:00 +20°C° 0 mm 1 m/s 649 mmHg 44%
    04:00 +20°C° 0 mm 1 m/s 648 mmHg 45%
    05:00 +20°C° 0 mm 1 m/s 649 mmHg 45%
    06:00 +21°C° 0 mm 1 m/s 649 mmHg 45%
    07:00 +21°C° 0 mm 1 m/s 650 mmHg 46%
    08:00 +23°C° 0 mm 1 m/s 650 mmHg 44%
    09:00 +24°C° 0 mm 2 m/s 651 mmHg 43%
    10:00 +26°C° 0 mm 2 m/s 651 mmHg 41%
    11:00 +27°C° 0 mm 2 m/s 651 mmHg 41%
    12:00 +28°C° 0 mm 2 m/s 650 mmHg 40%
    13:00 +28°C° 0 mm 3 m/s 650 mmHg 39%
    14:00 +28°C° 0 mm 2 m/s 649 mmHg 39%
    15:00 +28°C° 0 mm 2 m/s 649 mmHg 38%
    16:00 +28°C° 0 mm 2 m/s 649 mmHg 38%
    17:00 +26°C° 0 mm 2 m/s 649 mmHg 43%
    18:00 +24°C° 0 mm 2 m/s 649 mmHg 49%
    19:00 +22°C° 0 mm 1 m/s 649 mmHg 54%
    20:00 +22°C° 0,2 mm 1 m/s 650 mmHg 54%
    21:00 +22°C° 0,2 mm 1 m/s 650 mmHg 54%
    22:00 +21°C° 0,2 mm 1 m/s 651 mmHg 54%
    23:00 +21°C° 0,1 mm 1 m/s 650 mmHg 55%

    25 Août, Samedi

    Heure Température Précipitation Vent Pression Humidité
    00:00 +20°C° 0,1 mm 1 m/s 650 mmHg 56%
    01:00 +20°C° 0,1 mm 1 m/s 650 mmHg 56%
    02:00 +20°C° 0 mm 1 m/s 649 mmHg 57%
    03:00 +19°C° 0 mm 1 m/s 649 mmHg 58%
    04:00 +19°C° 0 mm 1 m/s 649 mmHg 59%
    05:00 +20°C° 0 mm 1 m/s 649 mmHg 59%
    06:00 +20°C° 0 mm 1 m/s 650 mmHg 58%
    07:00 +21°C° 0 mm 1 m/s 651 mmHg 57%
    08:00 +23°C° 0 mm 1 m/s 651 mmHg 53%
    09:00 +24°C° 0 mm 2 m/s 652 mmHg 49%
    10:00 +26°C° 0 mm 3 m/s 652 mmHg 44%
    11:00 +27°C° 0 mm 3 m/s 652 mmHg 42%
    12:00 +28°C° 0 mm 3 m/s 651 mmHg 39%
    13:00 +30°C° 0 mm 3 m/s 651 mmHg 36%
    14:00 +29°C° 0 mm 3 m/s 650 mmHg 37%
    15:00 +29°C° 0 mm 3 m/s 650 mmHg 37%
    16:00 +29°C° 0 mm 3 m/s 649 mmHg 37%
    17:00 +27°C° 0,2 mm 3 m/s 649 mmHg 43%
    18:00 +25°C° 0,2 mm 2 m/s 650 mmHg 49%
    19:00 +23°C° 0,2 mm 2 m/s 650 mmHg 55%
    20:00 +21°C° 0 mm 2 m/s 650 mmHg 55%
    21:00 +21°C° 0 mm 2 m/s 651 mmHg 56%
    22:00 +21°C° 0 mm 1 m/s 651 mmHg 56%
    23:00 +21°C° 0 mm 1 m/s 651 mmHg 58%
    Voir plus